Location: Bad Salzschlirf
(50.3750°N, 9.3000°E)
Time: 17:12:35
(UTC+02:00)

ISS - Pass Details

Date: 12 October 2018
Orbit: 403 x 408 km, 51.6° (Epoch: 17 October)

Event Time Altitude Azimuth Distance (km) Brightness Sun altitude
Rises 19:10:22 0° 284° (WNW) 2,338 1.7 -6.0°
Reaches altitude 10° 19:12:45 10° 269° (W) 1,473 0.9 -6.4°
Maximum altitude 19:15:22 22° 216° (SW) 954 -1.4 -6.8°
Drops below altitude 10° 19:17:58 10° 164° (SSE) 1,466 -1.1 -7.2°
Sets 19:20:19 0° 148° (SSE) 2,322 -0.3 -7.6°
